Regional Weather Roundup
Issued by NWS

Home | Current Version | Previous Version | Graphics & Text | Print | Product List | Glossary On
Versions: 1 2 3 4 5 6 7 8 9 10 11 12 13 14 15 16 17 18 19 20 21 22 23 24 25 26 27 28 29 30 31 32 33 34 35 36 37 38 39 40 41 42 43 44 45 46 47 48 49 50
000
ASUS43 KOAX 110110
RWRNE

WEATHER ROUNDUP FOR NEBRASKA
NATIONAL WEATHER SERVICE OMAHA NE
800 PM CDT THU JUL 10 2014

NOTES: SATELLITE DATA IS BEING USED TO AUGMENT CLOUD COVER ABOVE
       12000 FEET.
       "FAIR" INDICATES FEW OR NO CLOUDS BELOW 12,000 FEET WITH NO
       SIGNIFICANT WEATHER AND/OR OBSTRUCTIONS TO VISIBILITY.

  * THESE STATIONS DO NOT REPORT WEATHER SUCH AS RAIN...SNOW OR FOG.

NEZ001>004-019>022-054>056-110200-
NEBRASKA PANHANDLE

CITY           SKY/WX    TMP DP  RH WIND       PRES   REMARKS
SCOTTSBLUFF    CLOUDY    75  61  61 NW7       29.93R
ALLIANCE       LGT RAIN  69  65  86 E7        29.91F
CHADRON        CLOUDY    74  58  57 SW9       29.93R
KIMBALL        CLOUDY    79  56  45 E7        29.95R
SIDNEY         CLOUDY    80  55  42 NE8       29.94R
$$

NEZ057>060-069>072-079>082-110200-
SOUTHWEST NEBRASKA

CITY           SKY/WX    TMP DP  RH WIND       PRES   REMARKS
NORTH PLATTE   SUNNY     85  64  49 S15       29.88R
IMPERIAL       MOSUNNY   86  63  45 SE12      29.89R
LEXINGTON      SUNNY     83  68  59 SE14G21   29.90S
MCCOOK         SUNNY     85  66  53 SE15      29.87S
OGALLALA       PTSUNNY   84  62  48 SE10      29.88R
$$

NEZ005>010-023>029-035>040-094-110200-
NORTH CENTRAL NEBRASKA

CITY           SKY/WX    TMP DP  RH WIND       PRES   REMARKS
VALENTINE      MOSUNNY   87  68  52 SE20G25   29.82R HX  90
AINSWORTH      SUNNY     82  67  61 SE18      29.85S
BROKEN BOW     MOSUNNY   82  67  60 S17G26    29.90R
O`NEILL        MOSUNNY   81  66  59 S14G24    29.90R
ORD            SUNNY     80  67  64 SE15G22   29.89R
THEDFORD       MOSUNNY   87  65  48 S21G30    29.87S
$$

NEZ041-046>049-061>064-073>077-083>087-110200-
SOUTH CENTRAL NEBRASKA

CITY           SKY/WX    TMP DP  RH WIND       PRES   REMARKS
GRAND ISLAND   SUNNY     81  65  58 SE13      29.92F
AURORA         SUNNY     81  67  63 SE12      29.93F
HASTINGS       SUNNY     81  62  52 SE16      29.93R
HEBRON         CLEAR     83  64  51 SE13      29.94S
HOLDREGE       SUNNY     82  65  56 S13       29.92R
KEARNEY *      SUNNY     82  66  57 SE13      29.92S
YORK           CLEAR     81  68  65 SE12      29.95R
$$

NEZ011>018-030>034-042>045-110200-
NORTHEAST NEBRASKA

CITY           SKY/WX    TMP DP  RH WIND       PRES   REMARKS
NORFOLK        MOSUNNY   81  67  62 S10       29.92S
ALBION         SUNNY     80  64  59 S13       29.93R
BLAIR          PTCLDY    80  65  61 SE15G23   29.97S
FREMONT        CLEAR     83  66  57 SE10G16   29.96R
TEKAMAH        PTCLDY    82  66  58 SE17G25   29.95S
WAYNE          MOSUNNY   82  65  57 S15G21    29.93S
$$

NEZ050>053-065>068-078-088>093-110200-
SOUTHEAST NEBRASKA

CITY           SKY/WX    TMP DP  RH WIND       PRES   REMARKS
LINCOLN        CLEAR     83  63  50 S16       29.96R
OMAHA EPPLEY   PTCLDY    81  65  58 SE24G30   29.96F
BEATRICE       CLEAR     80  65  60 SE10G17   29.96R
FALLS CITY     CLEAR     80  66  62 SE7       29.99R
NEBRASKA CITY  CLEAR     78  65  64 SE14      29.99S
PLATTSMOUTH    CLEAR     80  65  61 SE10G18   29.99R
$$

NEZ044-045-051>053-067-110200-
OMAHA AREA

CITY           SKY/WX    TMP DP  RH WIND       PRES   REMARKS
OMAHA EPPLEY   PTCLDY    81  65  58 SE24G30   29.96F
BLAIR          PTCLDY    80  65  61 SE15G23   29.97S
FREMONT        CLEAR     83  66  57 SE10G16   29.96R
MILLARD        CLEAR     81  67  64 SE14G21   29.96S
OFFUTT AFB     CLEAR     80  70  71 SE16      29.98R
PLATTSMOUTH    CLEAR     80  65  61 SE10G18   29.99R
WAHOO          FAIR      82  65  56 SE9       29.96R
$$


USA.gov is the U.S. government's official web portal to all federal, state and local government web resources and services.